RADUGA-1M 3

Last updated on May 21, 2019, 3:10 a.m. UTC

1 39375U 13062A   19140.68296241 -.00000048  00000-0  00000+0 0  9994
2 39375   0.0110 213.3228 0003722 225.4003 115.2218  1.00271957 20219
UTC
Height (km)
Latitude
Longitude
Inclination
Orbital Period
UTC large
Height (km)
Speed (km/s)
/
Latitude / Longitude
Inclination (degrees)
Orbital Period (minutes)
Azimuth
Elevation
Range (km)
Doppler Factor
iOS Compass Heading
iOS Angle

Next 30 passes for location: Hong Kong

Rise time Rise Azimuth (degrees) Set time Set Azimuth (degrees) Duration Max altitude (degrees)

No matching passes for this satellites